KR6C Weather Reports


time (UTC)temp
F
wind
direction
speed
knots
gust
knots
rain 1hr
in
rain 24hr
in
rain mn
in
humidity
%
barometer
mb
20260506023007 73 328 0.9 0.0 0.00 0.00 0.00 49 1013.4
20260506020006 75 33 0.9 0.0 0.00 0.00 0.00 45 1013.2
20260506013007 77 314 0.9 0.0 0.00 0.00 0.00 43 1012.8
20260506010006 78 23 5.2 0.0 0.00 0.00 0.00 40 1012.8
20260506003008 79 331 0.9 0.0 0.00 0.00 0.00 37 1012.7
20260506000007 80 333 1.7 0.0 0.00 0.00 0.00 35 1012.8
20260505233008 80 276 0.0 0.0 0.00 0.00 0.00 35 1012.9
20260505230007 79 252 0.0 0.0 0.00 0.00 0.00 41 1013.1
20260505223006 78 4 0.0 0.0 0.00 0.00 0.00 41 1013.5
20260505220010 78 354 0.0 0.0 0.00 0.00 0.00 43 1013.9
20260505213006 77 309 0.0 0.0 0.00 0.00 0.00 46 1014.2
20260505210008 76 103 0.0 0.0 0.00 0.00 0.00 47 1014.8
20260505200011 72 23 2.6 0.0 0.00 0.00 0.00 56 1015.2
20260505193006 71 259 0.0 0.0 0.00 0.00 0.00 56 1015.4
20260505190007 69 188 0.0 0.0 0.00 0.00 0.00 62 1015.7
20260505183006 66 43 0.0 0.0 0.00 0.00 0.00 63 1015.8
20260505180006 62 122 0.0 0.0 0.00 0.00 0.00 70 1015.7
20260505173007 62 345 0.0 0.0 0.00 0.00 0.00 70 1015.8
20260505163007 58 248 0.0 0.0 0.00 0.00 0.00 79 1015.9
20260505153006 57 22 0.0 0.0 0.00 0.00 0.00 81 1016.0
20260505123009 56 253 0.0 0.0 0.00 0.00 0.00 88 1015.1
20260505120006 56 255 0.0 0.0 0.00 0.00 0.00 87 1015.0
20260505113006 56 252 0.0 0.0 0.00 0.00 0.00 88 1014.9
20260505100005 56 255 0.0 0.0 0.00 0.00 0.00 87 1014.7
20260505090005 57 254 0.0 0.0 0.00 0.00 0.00 85 1014.9
20260505083006 57 255 0.0 0.0 0.00 0.00 0.00 85 1015.1
20260505080005 57 255 0.0 0.0 0.00 0.00 0.00 85 1015.2
20260505073005 56 254 0.0 0.0 0.00 0.00 0.00 85 1015.1
20260505063005 55 62 0.0 0.0 0.00 0.00 0.00 87 1014.5
20260505060005 55 62 0.0 0.0 0.00 0.00 0.00 86 1014.2
20260505053004 56 63 0.0 0.0 0.00 0.00 0.00 84 1013.8
20260505040005 60 149 0.0 0.0 0.00 0.00 0.00 76 1012.5
20260505033005 62 148 0.0 0.0 0.00 0.00 0.00 73 1011.7
20260505030005 64 147 0.0 0.0 0.00 0.00 0.00 70 1011.1